Cork, Ireland

7:12 PM IST on May 24, 2018 (GMT +0100)
Cork

Weather History for EICK - October, 2013

Change the Weather History Date:

Friday, October 4, 2013

  Actual Average Record
Temperature  
Mean Temperature 56 °F -  
Max Temperature 62 °F 55 °F 62 °F (2002)
Min Temperature 50 °F 45 °F 41 °F (2012)
Degree Days  
Heating Degree Days 9    
Growing Degree Days 6 (Base 50)    
Moisture  
Dew Point 55 °F    
Average Humidity 95    
Maximum Humidity 100    
Minimum Humidity 77    
Precipitation  
Precipitation 0.04 in 0.16 in - ()
Sea Level Pressure  
Sea Level Pressure 29.77 in    
Wind  
Wind Speed 7 mph ()    
Max Wind Speed 14 mph    
Max Gust Speed -    
Visibility 5.8 miles    
Events Rain    
Averages and records for this station are not official NWS values.
T = Trace of Precipitation, MM = Missing Value Source: Averaged Metar Reports

Daily Weather History Graph

Daily Weather History Graph

Search for Another Location

Airport or City:

Astronomy

Oct. 04, 2013 Rise Set
Actual Time 7:39 AM IST 7:04 PM IST
Civil Twilight 7:06 AM IST 7:37 PM IST
Nautical Twilight 6:27 AM IST 8:16 PM IST
Astronomical Twilight 5:47 AM IST 8:56 PM IST
Moon 7:00 AM IST (10/4) 6:35 PM IST (10/4)
Length of Visible Light 12h 31m
Length of Day
11h 24m
Waning Crescent, 0% of the Moon is Illuminated
Oct 4
Waning Crescent
Oct 5
New
Oct 12
First Quarter
Oct 19
Full
Oct 27
Last Quarter

Hourly Weather History & Observations

Time (IST) Temp. Dew Point Humidity Pressure Visibility Wind Dir Wind Speed Gust Speed Precip Events Conditions
12:00 AM 59.0 °F 59.0 °F 100% 29.56 in 1.0 mi West 4.6 mph - N/A Rain Light Rain
12:30 AM 59.0 °F 59.0 °F 100% 29.56 in 1.0 mi West 5.8 mph - N/A Rain Light Rain
1:00 AM 59 °F 59 °F 98% 29.57 in 1 mi NNW 8.9 mph - - Rain Light Rain
1:00 AM 59.0 °F 59.0 °F 100% 29.56 in 0.6 mi NNW 9.2 mph - N/A   Overcast
1:30 AM 59.0 °F 59.0 °F 100% 29.56 in 1.0 mi NW 9.2 mph - N/A Rain Light Rain
2:00 AM 57.2 °F 57.2 °F 100% 29.56 in 6.2 mi NW 9.2 mph - N/A Rain Light Rain
2:30 AM 57.2 °F 57.2 °F 100% 29.59 in 6.2 mi NW 8.1 mph - N/A   Mostly Cloudy
3:00 AM 57.2 °F 57.2 °F 100% 29.59 in 6.2 mi WNW 8.1 mph - N/A   Mostly Cloudy
3:30 AM 57.2 °F 57.2 °F 100% 29.59 in 6.2 mi NW 8.1 mph - N/A   Mostly Cloudy
4:00 AM 57.2 °F 57.2 °F 100% 29.59 in 6.2 mi WNW 6.9 mph - N/A   Mostly Cloudy
4:30 AM 55.4 °F 55.4 °F 100% 29.62 in 6.2 mi WNW 6.9 mph - N/A   Partly Cloudy
5:30 AM 55.4 °F 55.4 °F 100% 29.62 in 6.2 mi West 4.6 mph - N/A   Partly Cloudy
6:00 AM 53.6 °F 53.6 °F 100% 29.62 in 6.2 mi West 5.8 mph - N/A   Partly Cloudy
6:30 AM 55.4 °F 55.4 °F 100% 29.65 in 6.2 mi WNW 8.1 mph - N/A   Partly Cloudy
7:00 AM 55 °F 55 °F 100% 29.68 in 16 mi West 6.7 mph - -   Partly Cloudy
7:00 AM 55.4 °F 55.4 °F 100% 29.65 in 6.2 mi West 5.8 mph - N/A   Mostly Cloudy
7:30 AM 55.4 °F 55.4 °F 100% 29.68 in 6.2 mi West 5.8 mph - N/A   Mostly Cloudy
8:00 AM 55.4 °F 55.4 °F 100% 29.68 in 6.2 mi WNW 5.8 mph - N/A Rain Light Rain
8:30 AM 55.4 °F 55.4 °F 100% 29.71 in 6.2 mi West 4.6 mph - N/A   Mostly Cloudy
9:00 AM 55.4 °F 55.4 °F 100% 29.71 in 6.2 mi West 5.8 mph - N/A   Mostly Cloudy
9:30 AM 57.2 °F 57.2 °F 100% 29.74 in 6.2 mi WNW 8.1 mph - N/A   Scattered Clouds
10:00 AM 57.2 °F 57.2 °F 100% 29.74 in 6.2 mi WNW 9.2 mph - N/A   Scattered Clouds
10:30 AM 59.0 °F 57.2 °F 94% 29.74 in 6.2 mi West 8.1 mph - N/A   Scattered Clouds
11:00 AM 59.0 °F 57.2 °F 94% 29.77 in 6.2 mi WNW 11.5 mph - N/A   Mostly Cloudy
11:30 AM 59.0 °F 57.2 °F 94% 29.77 in 6.2 mi WNW 12.7 mph - N/A Rain Light Rain Showers
12:00 PM 59.0 °F 57.2 °F 94% 29.77 in 6.2 mi WNW 9.2 mph - N/A   Mostly Cloudy
12:30 PM 59.0 °F 57.2 °F 94% 29.80 in 6.2 mi WNW 13.8 mph - N/A   Mostly Cloudy
1:00 PM 59 °F 57 °F 91% 29.81 in 25 mi West 8.9 mph - - Rain Light Rain Showers
1:00 PM 59.0 °F 57.2 °F 94% 29.80 in 6.2 mi West 9.2 mph - N/A   Mostly Cloudy
1:30 PM 60.8 °F 57.2 °F 88% 29.80 in 6.2 mi WNW 9.2 mph - N/A   Scattered Clouds
2:00 PM 60.8 °F 55.4 °F 82% 29.83 in 6.2 mi WNW 13.8 mph - N/A   Mostly Cloudy
2:30 PM 60.8 °F 57.2 °F 88% 29.83 in 6.2 mi WNW 11.5 mph - N/A   Mostly Cloudy
3:00 PM 60.8 °F 55.4 °F 82% 29.83 in 6.2 mi WNW 12.7 mph - N/A Rain Light Rain Showers
3:30 PM 60.8 °F 55.4 °F 82% 29.86 in 6.2 mi NW 11.5 mph - N/A Rain Light Rain Showers
4:00 PM 60.8 °F 57.2 °F 88% 29.86 in 6.2 mi West 6.9 mph - N/A   Scattered Clouds
4:30 PM 60.8 °F 55.4 °F 82% 29.89 in 6.2 mi WNW 8.1 mph - N/A   Scattered Clouds
5:00 PM 60.8 °F 53.6 °F 77% 29.86 in 6.2 mi WNW 10.4 mph - N/A   Scattered Clouds
5:30 PM 59.0 °F 53.6 °F 82% 29.86 in 6.2 mi West 5.8 mph - N/A Rain Light Rain Showers
6:00 PM 55.4 °F 55.4 °F 100% 29.89 in 3.1 mi West 13.8 mph - N/A Rain Light Rain Showers
6:30 PM 55.4 °F 55.4 °F 100% 29.89 in 6.2 mi NW 9.2 mph - N/A   Scattered Clouds
7:00 PM 55 °F 55 °F 99% 29.92 in 25 mi NW 8.9 mph - - Rain Light Rain Showers
7:00 PM 55.4 °F 55.4 °F 100% 29.92 in 6.2 mi NW 8.1 mph - N/A   Scattered Clouds
7:30 PM 53.6 °F 53.6 °F 100% 29.92 in 6.2 mi NW 8.1 mph - N/A   Partly Cloudy
8:00 PM 53.6 °F 53.6 °F 100% 29.92 in 6.2 mi NW 6.9 mph - N/A   Partly Cloudy
8:30 PM 53.6 °F 53.6 °F 100% 29.95 in 6.2 mi WNW 4.6 mph - N/A   Partly Cloudy
9:00 PM 53.6 °F 51.8 °F 94% 29.95 in 6.2 mi WNW 5.8 mph - N/A   Partly Cloudy
9:30 PM 53.6 °F 51.8 °F 94% 29.95 in 6.2 mi West 3.5 mph - N/A   Partly Cloudy
10:00 PM 51.8 °F 50.0 °F 94% 29.98 in 6.2 mi West 5.8 mph - N/A   Partly Cloudy
10:30 PM 50.0 °F 48.2 °F 94% 29.98 in 6.2 mi SW 3.5 mph - N/A   Partly Cloudy
11:00 PM 50.0 °F 48.2 °F 94% 29.98 in 6.2 mi West 3.5 mph - N/A   Partly Cloudy
11:30 PM 50.0 °F 48.2 °F 94% 29.98 in 6.2 mi South 2.3 mph - N/A   Partly Cloudy